ECHOSTAR 11

Last updated on Sun Dec 21 2025 00:02:53 GMT+0000 (Coordinated Universal Time)

1 33207U 08035A 25354.50784142 -.00000033 00000+0 00000+0 0 9996 2 33207 0.5422 86.3695 0002381 177.5151 258.2955 1.00271557 49421
UTC large
Height (km)
Speed (km/s)
/
Latitude / Longitude
Inclination (degrees)
Orbital Period (minutes)
Azimuth
Elevation
Range (km)
Doppler Factor

Next 0 passes for location: London (51.5072 / 0.1276)

Sorry there are no passes over London.